Flag for U.S.A. Weather past 2 weeks in Fairbanks, Alaska, U.S.A.

Now
54 °F

Light rain. Cloudy.


Feels Like: 53 °F
Forecast: 51 / 54 °F
Wind: 5 mph from Southwest

Location: Wainwright U. S. Army Airfield

Current Time: Jul 24, 2014 at 1:11:44 PM

Latest Report: Jul 24, 2014 at 12:55 PM


Visibility: 6 mi

Pressure: 29.76 "Hg

Humidity: 88%

Dew point: 50 °F

Location of FairbanksLocation

Historic Weather in Fairbanks — Graph

°F

Fairbanks temperature yesterday

Maximum temperature yesterday: 63 °F (at 2:55 PM)
Minimum temperature yesterday: 54 °F (at 6:55 AM)
Average temperature yesterday: 58 °F

Past Weeks' High & Low Weather Summary

 TemperatureHumidityPressure
High81 °F (Jul 9, 5:55 PM)100% (Jul 15, 8:55 AM)30.16 "Hg (Jul 15, 8:55 AM)
Low44 °F (Jul 21, 2:56 AM)26% (Jul 9, 5:55 PM)29.51 "Hg (Jul 11, 8:55 AM)
Average60 °F67%29.86 "Hg
* Reported Jul 9 11:55 AM — Jul 24 11:55 AM, Fairbanks, Weather by CustomWeather, © 2014

Note: Actual official high and low records may vary slightly from our data, if they occured in-between our weather recording intervals... More about our weather records

Advertising

Fairbanks weather history for previous 24 hours

 ConditionsComfort  
Time TempWeatherWind HumidityBarometerVisibility
11:55 AM
Jul 24
54 °FLight rain. Fog.5 mph88%29.76 "Hg5 mi
10:55 AM54 °FLight rain. Cloudy.7 mph82%29.77 "Hg6 mi
9:55 AM54 °FLight rain. Cloudy.7 mph82%29.77 "Hg7 mi
8:55 AM52 °FLight rain. Cloudy.8 mph94%29.77 "Hg7 mi
7:55 AM54 °FLight rain. More clouds than sun.8 mph88%29.77 "Hg7 mi
6:55 AM54 °FLight rain. More clouds than sun.3 mph88%29.77 "Hg7 mi
5:56 AM53 °FOvercast.5 mph89%29.77 "Hg10 mi
4:56 AM53 °FLight rain. Mostly cloudy.6 mph89%29.78 "Hg10 mi
3:56 AM53 °FMostly cloudy.8 mph93%29.78 "Hg10 mi
2:56 AM54 °FLight rain. Mostly cloudy.6 mph90%29.77 "Hg10 mi
1:56 AM55 °FLight rain. Mostly cloudy.8 mph90%29.77 "Hg10 mi
12:56 AM56 °FLight rain. Overcast.7 mph87%29.76 "Hg9 mi
11:56 PM
Jul 23
56 °FMostly cloudy.7 mph84%29.75 "Hg10 mi
10:56 PM58 °FMostly cloudy.9 mph78%29.75 "Hg10 mi
9:56 PM60 °FMore clouds than sun.13 mph72%29.73 "Hg10 mi
8:56 PM61 °FOvercast.3 mph72%29.73 "Hg10 mi
7:56 PM62 °FOvercast.6 mph67%29.73 "Hg10 mi
4:55 PM63 °FCloudy.7 mph64%29.74 "Hg10 mi
3:55 PM63 °FCloudy.6 mph64%29.75 "Hg10 mi
2:55 PM63 °FCloudy.7 mph68%29.76 "Hg10 mi
1:55 PM61 °FCloudy.6 mph72%29.77 "Hg7 mi
Weather by CustomWeather, © 2014

See weather overviewHow to use our weather pages